Regional Weather Roundup
Issued by NWS

Home | Current Version | Previous Version | Text Only | Print | Product List | Glossary Off
Versions: 1 2 3 4 5 6 7 8 9 10 11 12 13 14 15 16 17 18 19 20 21 22 23 24 25 26 27 28 29 30 31 32 33 34 35 36 37 38 39 40 41 42 43 44 45 46 47 48 49 50

000
ASUS43 KLOT 191208
RWRIL

ILLINOIS REGIONAL WEATHER ROUNDUP
NATIONAL WEATHER SERVICE CHICAGO/ROMEOVILLE IL
600 AM CST SUN FEB 19 2017

NOTE: "FAIR" INDICATES FEW OR NO CLOUDS BELOW 12,000 FEET WITH NO
SIGNIFICANT WEATHER AND/OR OBSTRUCTIONS TO VISIBILITY.

* THESE STATIONS ARE NOT UNDER NWS QUALITY CONTROL. THEY ALSO MAY NOT
  REPORT WEATHER SUCH AS PRECIPITATION OR FOG.

ILZ001-002-007-009-015-016-024-191300-
NORTHWEST ILLINOIS

CITY           SKY/WX    TMP DP  RH WIND       PRES   REMARKS
MOLINE         CLOUDY    30  25  81 CALM      29.97R
6HR MIN TEMP:  28; 6HR MAX TEMP:  35;

STERLING*      CLEAR     31  30  96 CALM      29.99R
SAVANNA*       CLEAR     30  30  98 CALM      29.98R
$$

ILZ003-004-008-010-011-017-018-191300-
NORTH CENTRAL ILLINOIS

CITY           SKY/WX    TMP DP  RH WIND       PRES   REMARKS
ROCKFORD       CLEAR     31  28  89 CALM      30.00R
6HR MIN TEMP:  31; 6HR MAX TEMP:  38;

FREEPORT*      PTCLDY    30  30  99 CALM      29.99R FOG
ROCHELLE*      CLEAR     32  31  97 CALM      29.99R
DE KALB*       CLEAR     39  36  87 CALM      29.99R
PERU*          CLEAR     34  31  87 CALM      29.99R
$$

ILZ005-006-012>014-019>023-191300-
NORTHEAST ILLINOIS

CITY           SKY/WX    TMP DP  RH WIND       PRES   REMARKS
CHICAGO-OHARE  CLEAR     39  34  82 W6        29.97R WCI  35
6HR MIN TEMP:  35; 6HR MAX TEMP:  45;

CHICAGO-MIDWAY CLEAR     39  33  79 CALM      29.98R
6HR MIN TEMP:  39; 6HR MAX TEMP:  47;

AURORA         CLEAR     31  28  89 CALM      29.98R
6HR MIN TEMP:  30; 6HR MAX TEMP:  42;

LANSING*       CLEAR     33  33 100 CALM      29.98R
JOLIET*        CLEAR     33  32  96 CALM      29.99R
WAUKEGAN       CLEAR     41  32  70 NW7       29.97R
6HR MIN TEMP:  36; 6HR MAX TEMP:  46;

DUPAGE AIRPORT CLEAR     32  28  85 CALM      29.98R FOG
6HR MIN TEMP:  31; 6HR MAX TEMP:  39;

KANKAKEE*      CLEAR     32  31  97 CALM      29.99R
WHEELING       CLEAR     32  29  88 CALM      29.98R
6HR MIN TEMP:  30; 6HR MAX TEMP:  39;

MORRIS*        CLEAR     33  31  90 CALM      29.98R
ROMEOVILLE*    CLEAR     36  36 100 CALM      29.99R
NORTHERLY ISL    N/A     46  37  71 SW6         N/A
$$

LMZ740>746-191300-
SOUTHERN LAKE MICHIGAN

STATION/POSITION SKY/WX   TEMP    WIND        PRES    VSBY  WAVE
                          AIR SEA DIR/SP/G                  HT/PER
                          (F)     (DEG/KT/KT) (MB)    (MI)  (FT/S)
HARRISON CRIB              52     270/  6/  7   N/A
BURNHAM HARBOR             45     260/  5/  6   N/A
CALUMET HARBOR             42     260/  2/  3 1014.3R
BURNS HARBOR               44     230/  3/  3 1015.6R
MICHIGAN CITY              43     210/  5/  6   N/A
$$

ILZ025>027-034>036-040-047-049-050-058-095>099-191300-
WEST-CENTRAL ILLINOIS

CITY           SKY/WX    TMP DP  RH WIND       PRES   REMARKS
QUINCY         CLEAR     45  43  93 S5        29.96R
GALESBURG*     CLOUDY    31  29  94 CALM        N/A
MACOMB*        CLOUDY    33  31  92 CALM      29.99R
JACKSONVILLE*  FOG       34  34  99 CALM      29.98R VSB<1/4
PITTSFIELD*      N/A     38  37  96 CALM      29.98R FOG
$$

ILZ028>032-037-038-041>044-048-051>054-059>061-191300-
CENTRAL ILLINOIS

CITY           SKY/WX    TMP DP  RH WIND       PRES   REMARKS
PONTIAC        FOG       32  32  99 CALM      30.00R VSB 1/4
BLOOMINGTON    FOG       38  38 100 SW6       29.99R VSB 1/4 WCI  33
DECATUR        FOG       47  46  97 SW7       29.99R VSB 1/4
PEORIA         CLEAR     38  36  92 CALM      29.98R
6HR MIN TEMP:  36; 6HR MAX TEMP:  43;

LACON*         CLOUDY    30  29  97 CALM      29.98R
LINCOLN*       FOG       42  42 100 CALM      29.99R VSB 1/4
SPRINGFIELD    FOG       41  40  96 S3        29.99R VSB 1/4
6HR MIN TEMP:  41; 6HR MAX TEMP:  47;

TAYLORVILLE    FOG       46  46 100 CALM      30.00R VSB 1/4
6HR MIN TEMP:  46; 6HR MAX TEMP:  49;

$$

ILZ033-039-045-046-055>057-062-063-191300-
EAST-CENTRAL ILLINOIS

CITY           SKY/WX    TMP DP  RH WIND       PRES   REMARKS
CHAMPAIGN      FOG       48  46  93 W6        30.00R VSB 1/4
RANTOUL*       FOG       48  48  99 SW5       29.99R VSB 1/2
MATTOON        CLOUDY    49  49 100 W6        29.99R FOG
PARIS*         CLOUDY    49  48  97 W3        30.01S FOG
$$

ILZ079-100>102-191300-
SOUTHWEST ILLINOIS

CITY           SKY/WX    TMP DP  RH WIND       PRES   REMARKS
ALTON          FOG       42  42 100 E3        30.01R VSB<1/4
BELLEVILLE     FOG       43  43 100 CALM      30.00R VSB 1/2
CAHOKIA*       FOG       39  37  92 CALM      30.01R VSB 1/4
SPARTA*        FOG       50  49  99 CALM      30.02R VSB 1
$$

ILZ064>066-069>071-074>076-080>082-084>086-088>090-092>094-191300-
SOUTH-CENTRAL ILLINOIS

CITY           SKY/WX    TMP DP  RH WIND       PRES   REMARKS
CARBONDALE     CLOUDY    52  52 100 W3        30.01R FOG
6HR MIN TEMP:  49; 6HR MAX TEMP:  52;

CAIRO*         FOG       45  45 100 CALM      30.02R VSB 1/2
EFFINGHAM*     CLOUDY    50  50 100 CALM      30.03R FOG
MARION         CLOUDY    52  52 100 CALM      30.03R FOG
MT. VERNON     CLOUDY    51  50  96 CALM      30.02R FOG
CENTRALIA*     CLOUDY    52  52 100 SW5       30.01R FOG
SALEM*         CLOUDY    52  50  93 SW5       30.01R FOG
METROPOLIS*    FOG       45  45  99 CALM      30.03R VSB<1/4
$$

ILZ067-068-072-073-078-083-087-091-191300-
SOUTHEAST ILLINOIS

CITY           SKY/WX    TMP DP  RH WIND       PRES   REMARKS
LAWRENCEVILLE  CLOUDY    49  48  97 CALM      30.03R FOG
FLORA*         CLOUDY    52  50  93 W5        30.02R FOG
FAIRFIELD*     CLOUDY    50  50 100 CALM      30.01R FOG
HARRISBURG*    CLOUDY    51  51 100 CALM      30.02R FOG
ROBINSON*      CLOUDY    49  48  95 NW3       30.03R
CARMI*         CLOUDY    50  50 100 CALM      30.02R FOG
$$

ABBREVIATIONS USED IN REMARKS
   TC - TEMPERATURE IN CELSIUS
  WCI - WIND CHILL INDEX
   HX - HEAT INDEX
  VSB - VISIBILITY
$$




USA.gov is the U.S. government's official web portal to all federal, state and local government web resources and services.